(213634) = 2002 QO115

Discovered at Palomar on 2002-08-29 by NEAT.

Orbit

Orbit type: Main Belt

Note: WebGL enabled browser required.

epoch2024-03-31.0
epoch JD2460400.5
perihelion date2021-03-27.34377
perihelion JD2459300.84377
argument of perihelion (°)122.84216
ascending node (°)147.90483
inclination (°)2.06213
eccentricity0.1587221
perihelion distance (AU)2.0551947
Tisserand w.r.t. Jupiter3.5
ΔV w.r.t. Earth (km/sec)9.0
semimajor axis (AU)2.4429438
mean anomaly (°)283.85109
mean daily motion (°/day)0.25812710
aphelion distance (AU)2.831
period (years)3.82
P-vector [x]0.01332614
P-vector [y]-0.92900674
P-vector [z]-0.36982279
Q-vector [x]0.99972841
Q-vector [y]0.01945075
Q-vector [z]-0.01283683
absolute magnitude17.44
phase slope0.15
uncertainty0
referenceMPEC 2024-E179
observations used291
oppositions14
arc length (days)7877
first opposition used2002
last opposition used2024
residual rms (arc-secs)0.84
perturbers coarse indicatorM-v
perturbers precise indicator003Ek
first observation date used2002-08-17.0
last observation date used2024-03-11.0
computer nameMPCLINUX
JD of orbit computation2456966.759931
perihelion JD uncertainty (days)1.0546E-04
argument of perihelion uncertainty (°)1.9749E-04
ascending node uncertainty (°)1.9586E-04
inclination uncertainty (°)5.6721E-06
eccentricity uncertainty 4.7802E-08
perihelion distance uncertainty (AU)1.2343E-07
Minimum Orbit Intersection Distances (in AU)
for orbit epoch: 2460400.5, reference: E2024-GD4
Mercury1.59384
Venus1.32932
Earth1.03973
Mars0.57283
Jupiter2.25577
Saturn6.212
Uranus15.8372
Neptune27.0982

Observations

298 total observations over interval: 2002 08 17.49145 – 2024 03 11.290157
These data are available for download (format description).

Date (UT) J2000 RA J2000 Dec Magn Location Ref
2002 08 17.49145 22 39 56.03 -08 43 26.2 20.2 R 644 – Palomar Mountain/NEAT MPS 211041
2002 08 17.50188 22 39 55.49 -08 43 30.5   644 – Palomar Mountain/NEAT MPS 211041
2002 08 29.39669 22 29 40.88 -09 59 36.3 19.7 R 644 – Palomar Mountain/NEAT MPS 211041
2002 08 29.40738 22 29 40.27 -09 59 40.4 19.7 R 644 – Palomar Mountain/NEAT MPS 211041
2002 08 29.42027 22 29 39.58 -09 59 45.0 19.8 R 644 – Palomar Mountain/NEAT MPS 211041
2002 09 01.27417 22 27 10.19 -10 17 48.5 19.6 R 644 – Palomar Mountain/NEAT MPS 211041
2002 09 01.33852 22 27 06.67 -10 18 12.6 19.3 R 644 – Palomar Mountain/NEAT MPS 211041
2002 09 04.19821 22 24 39.91 -10 35 47.8 19.5 R 644 – Palomar Mountain/NEAT MPS 211041
2002 09 04.26281 22 24 36.50 -10 36 11.5 19.8 R 644 – Palomar Mountain/NEAT MPS 211041
2002 09 04.32630 22 24 33.14 -10 36 34.6 19.9 R 644 – Palomar Mountain/NEAT MPS 211041
2002 09 15.25549 22 16 11.14 -11 36 02.0 20.0 R 644 – Palomar Mountain/NEAT MPS 211041
2002 09 15.25664 22 16 11.09 -11 36 02.8   644 – Palomar Mountain/NEAT MPS 211041
2002 09 15.27793 22 16 10.18 -11 36 08.0 20.4 R 644 – Palomar Mountain/NEAT MPS 211041
2002 09 15.29766 22 16 09.37 -11 36 13.7   644 – Palomar Mountain/NEAT MPS 211041
2002 09 15.29887 22 16 09.32 -11 36 14.8 20.1 R 644 – Palomar Mountain/NEAT MPS 211041
2002 09 26.12602 22 10 22.47 -12 17 55.6 20.6 R 644 – Palomar Mountain/NEAT MPS 211041
2002 09 26.14652 22 10 21.96 -12 17 59.0   644 – Palomar Mountain/NEAT MPS 211041
2002 09 26.16745 22 10 21.38 -12 18 02.3   644 – Palomar Mountain/NEAT MPS 211041
2005 03 10.35312 12 32 31.80 -01 29 07.2 20.2 R 695 – Kitt Peak MPS 211370
2005 03 10.48904 12 32 25.60 -01 28 18.4   695 – Kitt Peak MPS 211370
2005 04 09.30685 12 06 52.10 +01 45 52.3 19.8 R G96 – Mt. Lemmon Survey MPS 211370
2005 04 09.31219 12 06 51.83 +01 45 54.1 20.2 R G96 – Mt. Lemmon Survey MPS 211370
2005 04 09.31753 12 06 51.58 +01 45 56.8 20.4 R G96 – Mt. Lemmon Survey MPS 211370
2005 04 09.32289 12 06 51.27 +01 45 58.0 20.0 R G96 – Mt. Lemmon Survey MPS 211370
2006 09 15.25441 00 19 31.48 +00 06 08.6   691 – Steward Observatory, Kitt Peak-Spacewatch MPS 211370
2006 09 15.27175 00 19 30.55 +00 06 01.9   691 – Steward Observatory, Kitt Peak-Spacewatch MPS 211370
2006 09 15.28908 00 19 29.62 +00 05 55.4   691 – Steward Observatory, Kitt Peak-Spacewatch MPS 211370
2006 09 30.16310 00 06 18.31 -01 32 43.7 20.6 V 691 – Steward Observatory, Kitt Peak-Spacewatch MPS 211370
2006 09 30.18039 00 06 17.36 -01 32 50.3 21.0 V 691 – Steward Observatory, Kitt Peak-Spacewatch MPS 211370
2006 09 30.19770 00 06 16.44 -01 32 56.8 20.6 V 691 – Steward Observatory, Kitt Peak-Spacewatch MPS 211370
2006 09 30.27535 00 06 12.20 -01 33 26.8 20.3 V G96 – Mt. Lemmon Survey MPS 211730
2006 09 30.28443 00 06 11.70 -01 33 30.1 20.2 V G96 – Mt. Lemmon Survey MPS 211730
2006 09 30.29346 00 06 11.23 -01 33 33.6 20.2 V G96 – Mt. Lemmon Survey MPS 211730
2006 09 30.30286 00 06 10.69 -01 33 37.1 20.4 V G96 – Mt. Lemmon Survey MPS 211730
2006 10 20.23683 23 51 41.29 -03 14 38.6 21.2 V G96 – Mt. Lemmon Survey MPS 211730
2006 10 20.24458 23 51 41.00 -03 14 40.0 21.1 V G96 – Mt. Lemmon Survey MPS 211730
2006 10 20.25232 23 51 40.75 -03 14 42.3 21.1 V G96 – Mt. Lemmon Survey MPS 211730
2006 10 20.26003 23 51 40.50 -03 14 43.3 20.6 V G96 – Mt. Lemmon Survey MPS 211730
2009 03 16.40486 14 24 33.49 -11 35 41.4 20.7 V 691 – Steward Observatory, Kitt Peak-Spacewatch MPS 280025
2009 03 16.42305 14 24 33.30 -11 35 38.5 20.8 V 691 – Steward Observatory, Kitt Peak-Spacewatch MPS 280025
2009 03 16.44118 14 24 33.13 -11 35 35.9 20.8 V 691 – Steward Observatory, Kitt Peak-Spacewatch MPS 280025
2009 03 28.37328 14 20 55.85 -10 57 47.3 20.8 V 691 – Steward Observatory, Kitt Peak-Spacewatch MPS 282492
2009 03 28.39097 14 20 55.29 -10 57 43.1 20.5 V 691 – Steward Observatory, Kitt Peak-Spacewatch MPS 282492
2009 03 28.40867 14 20 54.74 -10 57 39.1 20.5 V 691 – Steward Observatory, Kitt Peak-Spacewatch MPS 282492
2009 04 01.37719 14 18 47.65 -10 40 44.1   691 – Steward Observatory, Kitt Peak-Spacewatch MPS 282492
2009 04 01.39491 14 18 46.98 -10 40 39.6   691 – Steward Observatory, Kitt Peak-Spacewatch MPS 282492
2009 04 01.41261 14 18 46.32 -10 40 34.5   691 – Steward Observatory, Kitt Peak-Spacewatch MPS 282492
2009 04 21.19736 14 03 21.24 -08 56 01.5 19.6 V G96 – Mt. Lemmon Survey MPS 284258
2009 04 21.20017 14 03 21.09 -08 56 00.3 19.6 V G96 – Mt. Lemmon Survey MPS 284258
2009 04 21.20295 14 03 20.91 -08 55 59.4 19.6 V G96 – Mt. Lemmon Survey MPS 284258
2009 04 21.20569 14 03 20.77 -08 55 58.8 19.7 V G96 – Mt. Lemmon Survey MPS 284258
2009 04 22.00462 14 02 37.20 -08 51 28.6 20.1 V J75 – OAM Observatory, La Sagra MPS 284258
2009 04 22.01741 14 02 36.47 -08 51 24.1 19.3 V J75 – OAM Observatory, La Sagra MPS 284258
2009 04 22.03021 14 02 35.59 -08 51 19.7 18.7 V J75 – OAM Observatory, La Sagra MPS 284258
2009 04 22.32100 14 02 19.92 -08 49 40.9 20.0   704 – Lincoln Laboratory ETS, New Mexico MPS 286827
2009 04 22.33229 14 02 19.28 -08 49 35.9 20.0   704 – Lincoln Laboratory ETS, New Mexico MPS 286827
2009 04 22.34447 14 02 18.62 -08 49 31.3 19.9   704 – Lincoln Laboratory ETS, New Mexico MPS 286827
2009 04 22.97404 14 01 44.45 -08 46 01.6 19.3 V J75 – OAM Observatory, La Sagra MPS 284258
2009 04 22.98704 14 01 43.68 -08 45 57.3 19.3 V J75 – OAM Observatory, La Sagra MPS 284258
2009 04 22.99978 14 01 42.91 -08 45 51.5 19.8 V J75 – OAM Observatory, La Sagra MPS 284258
2009 04 23.88655 14 00 54.83 -08 40 54.2 19.5 V J75 – OAM Observatory, La Sagra MPS 285648
2009 04 23.90027 14 00 54.05 -08 40 48.9 19.4 V J75 – OAM Observatory, La Sagra MPS 285648
2009 04 23.91381 14 00 53.28 -08 40 44.6 20.0 V J75 – OAM Observatory, La Sagra MPS 285648
2009 04 25.62982 13 59 19.54 -08 31 12.1 20.5 R D29 – Purple Mountain Observatory, XuYi Station MPS 285648
2009 04 25.64215 13 59 18.78 -08 31 06.8 19.0 R D29 – Purple Mountain Observatory, XuYi Station MPS 285648
2009 04 25.65514 13 59 18.16 -08 31 03.2 19.6 R D29 – Purple Mountain Observatory, XuYi Station MPS 285648
2009 04 25.66888 13 59 17.31 -08 30 58.3 20.5 R D29 – Purple Mountain Observatory, XuYi Station MPS 285648
2010 10 07.542030 01 42 40.840 +07 43 01.25 21.45 g F51 – Pan-STARRS 1, Haleakala MPS 365235
2010 10 07.554206 01 42 40.166 +07 42 56.88 21.56 g F51 – Pan-STARRS 1, Haleakala MPS 365235
2010 10 08.36507 01 41 56.39 +07 38 08.9 20.7 V 691 – Steward Observatory, Kitt Peak-Spacewatch MPS 350926
2010 10 08.38017 01 41 55.50 +07 38 03.2 20.9 V 691 – Steward Observatory, Kitt Peak-Spacewatch MPS 350926
2010 10 08.39527 01 41 54.67 +07 37 57.9 20.8 V 691 – Steward Observatory, Kitt Peak-Spacewatch MPS 350926
2010 10 12.38180 01 38 14.42 +07 14 13.5 20.6 V 691 – Steward Observatory, Kitt Peak-Spacewatch MPS 353527
2010 10 12.39948 01 38 13.38 +07 14 07.0 20.7 V 691 – Steward Observatory, Kitt Peak-Spacewatch MPS 353527
2010 10 12.41716 01 38 12.35 +07 14 00.5 21.0 V 691 – Steward Observatory, Kitt Peak-Spacewatch MPS 353527
2010 11 08.24501 01 15 18.07 +04 55 11.6 20.9 V G96 – Mt. Lemmon Survey MPS 357240
2010 11 08.25258 01 15 17.74 +04 55 10.7 20.4 V G96 – Mt. Lemmon Survey MPS 357240
2010 11 08.26006 01 15 17.46 +04 55 08.7 21.5 V G96 – Mt. Lemmon Survey MPS 357240
2010 11 08.26758 01 15 17.13 +04 55 07.1 21.4 V G96 – Mt. Lemmon Survey MPS 357240
2011 12 27.36880 08 09 43.30 +18 15 07.6 22.6 V G96 – Mt. Lemmon Survey MPS 405758
2011 12 27.37740 08 09 42.84 +18 15 09.0 21.8 V G96 – Mt. Lemmon Survey MPS 405758
2011 12 27.38615 08 09 42.44 +18 15 10.3 21.8 V G96 – Mt. Lemmon Survey MPS 405758
2011 12 27.39476 08 09 42.01 +18 15 11.9 22.0 V G96 – Mt. Lemmon Survey MPS 405758
2012 01 18.32019 07 48 37.62 +19 23 24.4 21.2 V G96 – Mt. Lemmon Survey MPS 408611
2012 01 18.32624 07 48 37.22 +19 23 25.8 21.2 V G96 – Mt. Lemmon Survey MPS 408611
2012 01 18.33227 07 48 36.79 +19 23 26.7 21.0 V G96 – Mt. Lemmon Survey MPS 408611
2012 01 18.33824 07 48 36.43 +19 23 28.8 20.6 V G96 – Mt. Lemmon Survey MPS 408611
2012 01 26.20476 07 40 28.05 +19 49 01.8 21.6 V G96 – Mt. Lemmon Survey MPS 409933
2012 01 26.21002 07 40 27.69 +19 49 03.2 20.6 V G96 – Mt. Lemmon Survey MPS 409933
2012 01 26.21530 07 40 27.37 +19 49 04.3 21.1 V G96 – Mt. Lemmon Survey MPS 409933
